This is the latest recevied weather packets stored in our database for station/object EW8324. If no packets are shown the sender has not sent any weather packets the latest 10 day(s).
| Time | Temp. | Humidity | Pressure | Rain* | Wind** | Luminosity | Snow |
|---|---|---|---|---|---|---|---|
| 1777823659 | - | - | 1018.5 hPa | 0.25 mm | - | - | - |
| 1777823363 | - | - | 1018.5 hPa | 0.51 mm | - | - | - |
| 1777823059 | 25.56° C | 47% | 1018.4 hPa | 0.51 mm | - | 728 W/m² | - |
| 1777822761 | 25° C | 47% | 1018.4 hPa | 0.51 mm | - | 721 W/m² | - |
| 1777822519 | 25° C | 49% | 1018.5 hPa | 0.25 mm | - | 709 W/m² | - |
| 1777822161 | 25° C | 52% | 1018.4 hPa | 0.25 mm | - | 696 W/m² | - |
| 1777821859 | 25° C | 50% | 1018.3 hPa | 0.25 mm | - | 672 W/m² | - |
| 1777821559 | 24.44° C | 51% | 1018.3 hPa | 0.25 mm | - | 670 W/m² | - |
| 1777821257 | 24.44° C | 53% | 1018.3 hPa | 0.25 mm | - | 656 W/m² | - |
| 1777820959 | 23.89° C | 55% | 1018.2 hPa | 0.25 mm | - | 642 W/m² | - |
| 1777820720 | 23.89° C | 54% | 1018.2 hPa | 0.25 mm | - | 626 W/m² | - |
| 1777820361 | 23.33° C | 57% | 1018.2 hPa | 0.25 mm | - | 607 W/m² | - |
| 1777820058 | 23.33° C | 58% | 1018.2 hPa | 0.25 mm | - | 584 W/m² | - |
| 1777819760 | 22.78° C | 59% | 1018.1 hPa | 0.25 mm | - | 580 W/m² | - |
| 1777819459 | 22.22° C | 62% | 1018.2 hPa | 0.25 mm | - | 554 W/m² | - |
| 1777819159 | 21.67° C | 64% | 1018.2 hPa | 0.25 mm | - | 540 W/m² | - |
| 1777818916 | 21.67° C | 68% | 1018.2 hPa | 0.25 mm | - | 528 W/m² | - |
| 1777818559 | 21.11° C | 66% | 1018.1 hPa | 0.25 mm | - | 513 W/m² | - |
| 1777818258 | 20.56° C | 77% | 1018.1 hPa | 0.25 mm | - | 496 W/m² | - |
| 1777817960 | 19.44° C | 80% | 1018.2 hPa | 0.25 mm | - | 473 W/m² | - |
| 1777817657 | 18.89° C | 69% | 1018.3 hPa | 0.25 mm | - | 454 W/m² | - |
| 1777817357 | 18.33° C | 60% | 1018.2 hPa | 0.25 mm | - | 418 W/m² | - |
| 1777817068 | 17.78° C | 61% | 1018.2 hPa | 0.25 mm | - | 399 W/m² | - |
| 1777816759 | 17.78° C | 61% | 1018.2 hPa | 0.25 mm | - | - | - |
| 1777816457 | 17.22° C | 62% | 1018.1 hPa | 0.25 mm | - | 346 W/m² | - |
* Rain latest hour (hover to see other rain measurements)
** Current wind speed in m/s (hover to see current wind gust speed)